Vertical_Velocity
-1 4 4 1 3 6 -3 -2 -0 1 -2 1 1 0 1 -1 -3 -1 2 -0 2 -1 -2 1 -1 0 0 1 -1 -1 -0 -1 -0
-1 -5 4 -1 1 2 1 -3 -1 4 -2 0 -1 -2 -0 -1 -0 -3 -0 3 2 2 -1 -1 -1 -2 -0 -1 1 -2 -1 -1 1
-3 -1 8 -1 -1 3 1 -1 -0 0 -1 -1 0 3 2 -2 -4 2 -3 2 1 0 2 2 1 -1 -0 -0 -1 -1 -1 0 -2
2 2 1 5 0 0 4 -1 -1 -1 -3 1 -5 2 0 12 -3 -1 2 -3 -0 0 3 4 1 -0 -0 0 -1 -1 1 -0 0
-0 2 -2 6 6 4 4 5 4 -5 -0 0 -9 -5 -0 -5 2 1 1 1 3 4 3 -3 3 0 -1 7 -1 0 1 -1 -1
-4 -3 -1 -3 -3 -0 -1 1 1 -4 -7 -7 -6 0 -1 0 1 1 3 7 -1 4 3 -3 1 2 1 -1 6 -1 2 -1 -1
1 -3 -1 -3 2 -5 -5 1 2 1 -6 -4 -1 -3 -2 1 1 -4 6 3 3 1 -2 -3 -5 -4 -1 -4 -3 4 0 -3 -0
-3 0 -5 -1 -1 1 -2 -2 3 3 2 1 3 -0 -3 -0 -0 2 0 -0 4 5 -0 -3 -3 6 7 7 1 8 -2 -2 0
0 3 0 2 -7 0 0 -2 0 0 -0 -1 -4 -1 1 0 3 -1 1 1 -1 3 9 8 9 1 3 6 3 1 -1 0 0
-5 1 -1 3 -0 1 3 2 -1 -2 -0 3 0 1 2 1 -1 -1 1 -1 1 1 1 6 6 3 1 1 -2 0 2 0 -1
-5 -4 1 -3 -1 4 2 -1 1 -1 -0 -0 3 1 -0 1 2 -3 2 -1 1 1 0 1 -0 -2 1 0 1 0 0 -1 -0
-4 2 -3 -4 -3 4 3 1 -1 -1 -1 -0 -1 -2 -1 1 -0 -2 1 -0 -2 0 1 1 3 0 -4 -0 2 -1 2 2 3
-1 1 0 1 -5 3 3 2 0 0 0 -3 -1 -1 2 0 1 0 0 1 -0 3 0 1 -1 0 1 -0 -2 -1 -1 1 4
4 1 0 3 -6 1 4 -0 1 0 2 -0 1 -2 -0 -1 2 3 2 2 3 3 2 -2 0 1 -0 -0 1 0 -1 -0 1
0 1 2 4 -4 -1 -1 1 -0 -2 0 1 2 2 -1 1 1 -2 1 0 1 0 1 1 1 -0 0 1 0 2 -0 -2 -0
-2 2 2 2 -2 -1 -1 -0 2 -0 0 -1 1 6 4 2 1 2 2 1 1 2 -2 -2 0 0 -1 -2 -0 1 -1 -1 -1
-0 -2 -1 2 -3 -2 -1 -1 -0 0 1 0 -1 0 12 4 5 3 2 -1 4 -2 -1 3 -1 1 2 1 1 3 0 3 0
-0 -1 -2 2 -2 -4 -1 -1 -3 -1 -2 1 -2 1 1 3 10 4 4 1 1 -2 1 -1 -0 -2 1 1 -2 -2 1 3 -0
-0 1 -2 0 -1 -3 -4 -1 0 -2 -0 -0 1 0 -0 2 0 3 1 2 -1 2 1 -2 -2 -3 -1 -2 -2 -4 0 -1 -1
1 -0 -3 2 0 -1 -1 -3 -0 1 -2 -1 1 -1 -1 -1 -0 -0 3 3 2 2 -0 -0 1 -0 -2 1 0 -0 -0 1 1
Height
1572 1573 1572 1571 1571 1569 1569 1571 1572 1571 1571 1572 1571 1572 1574 1574 1575 1575 1576 1575 1576 1576 1576 1576 1576 1576 1576 1575 1575 1576 1575 1576 1577
1575 1575 1575 1573 1572 1571 1572 1573 1574 1573 1573 1574 1574 1575 1575 1576 1576 1577 1577 1578 1578 1578 1577 1578 1578 1578 1578 1577 1577 1577 1578 1578 1578
1577 1577 1575 1573 1574 1573 1574 1576 1575 1575 1575 1576 1576 1577 1577 1577 1577 1578 1578 1579 1579 1579 1580 1580 1580 1579 1580 1579 1579 1579 1579 1579 1579
1578 1577 1578 1575 1575 1575 1574 1576 1577 1577 1576 1577 1578 1578 1578 1577 1578 1578 1579 1580 1581 1582 1582 1582 1582 1581 1582 1581 1581 1582 1582 1581 1581
1579 1579 1578 1578 1576 1576 1576 1576 1577 1578 1578 1578 1578 1579 1579 1579 1578 1580 1580 1582 1583 1583 1583 1582 1583 1583 1583 1583 1583 1584 1583 1583 1583
1577 1578 1579 1578 1577 1577 1578 1579 1579 1579 1580 1582 1582 1582 1582 1582 1581 1581 1581 1582 1583 1583 1583 1583 1584 1584 1584 1586 1585 1585 1584 1585 1585
1579 1579 1580 1580 1579 1578 1578 1580 1582 1582 1582 1583 1584 1583 1584 1584 1582 1582 1582 1582 1582 1583 1582 1583 1585 1585 1585 1586 1587 1586 1585 1587 1587
1579 1579 1580 1580 1582 1580 1580 1581 1582 1584 1584 1585 1585 1585 1586 1585 1585 1583 1584 1584 1583 1583 1582 1582 1586 1586 1587 1587 1587 1587 1587 1588 1588
1580 1581 1581 1581 1583 1582 1581 1582 1582 1584 1584 1585 1586 1587 1587 1586 1585 1585 1585 1585 1586 1586 1585 1585 1586 1588 1588 1587 1587 1587 1588 1588 1588
1578 1581 1580 1582 1584 1583 1582 1583 1583 1585 1585 1585 1586 1586 1586 1586 1586 1586 1586 1586 1587 1587 1587 1587 1587 1587 1588 1587 1587 1589 1589 1588 1589
1574 1578 1578 1582 1584 1585 1583 1583 1583 1584 1584 1585 1585 1585 1586 1586 1586 1586 1587 1587 1588 1587 1588 1588 1588 1587 1588 1587 1588 1588 1588 1588 1588
1573 1575 1577 1579 1583 1585 1583 1583 1583 1583 1584 1585 1584 1585 1585 1585 1585 1586 1587 1587 1588 1588 1588 1588 1588 1587 1588 1588 1588 1589 1589 1589 1587
1574 1576 1576 1577 1582 1584 1583 1583 1583 1584 1584 1584 1585 1584 1583 1583 1584 1585 1586 1587 1588 1587 1587 1587 1587 1588 1588 1588 1588 1588 1588 1588 1588
1575 1577 1576 1576 1580 1583 1582 1582 1582 1582 1583 1583 1585 1584 1583 1584 1584 1585 1586 1587 1587 1586 1586 1587 1588 1587 1587 1587 1587 1588 1588 1587 1587
1576 1576 1576 1575 1577 1580 1580 1580 1580 1581 1582 1584 1585 1585 1585 1584 1584 1584 1585 1585 1585 1583 1585 1586 1586 1587 1587 1587 1587 1586 1585 1585 1584
1576 1575 1576 1573 1574 1578 1578 1578 1579 1579 1580 1583 1585 1587 1587 1586 1586 1586 1585 1585 1585 1585 1585 1586 1586 1586 1586 1586 1585 1585 1583 1583 1582
1574 1574 1576 1573 1573 1576 1577 1577 1577 1577 1578 1581 1583 1586 1588 1586 1587 1587 1586 1586 1585 1585 1586 1585 1585 1585 1584 1584 1583 1583 1582 1581 1580
1572 1572 1575 1573 1572 1575 1576 1576 1576 1576 1577 1579 1580 1582 1583 1585 1586 1586 1586 1587 1586 1586 1585 1584 1584 1584 1583 1582 1581 1582 1581 1579 1578
1570 1570 1573 1573 1572 1573 1575 1575 1574 1574 1575 1576 1577 1578 1579 1580 1584 1585 1585 1585 1586 1585 1583 1583 1583 1583 1582 1581 1579 1580 1579 1577 1577
1570 1568 1571 1572 1570 1572 1573 1573 1573 1573 1574 1574 1575 1575 1577 1578 1580 1581 1584 1584 1584 1581 1581 1581 1581 1580 1581 1579 1578 1578 1577 1575 1574